Regional Weather Roundup
Issued by NWS

Home | Current Version | Previous Version | Text Only | Print | Product List | Glossary On
Versions: 1 2 3 4 5 6 7 8 9 10 11 12 13 14 15 16 17 18 19 20 21 22 23 24 25 26 27 28 29 30 31 32 33 34 35 36 37 38 39 40 41 42 43 44 45 46 47 48 49 50
322
ASUS44 KJAN 302203
RWRMS

MISSISSIPPI HOURLY WEATHER ROUNDUP
NATIONAL WEATHER SERVICE JACKSON MS
500 PM CDT SAT AUG 30 2014

NOTE: "FAIR: INDICATES FEW OR NO CLOUDS BELOW 12,000 FEET WITH NO
SIGNIFICANT WEATHER AND/OR OBSTRUCTIONS TO VISIBILITY.

MSZ001>002-007>008-010>013-018>021-025>028-034>036-302300-
NORTHWEST MISSISSIPPI

CITY           SKY/WX    TMP DP  RH WIND       PRES   REMARKS
CLARKSDALE     FAIR      75  75 100 CALM      30.00R
CLEVELAND      RAIN      74  74  99 E8        29.97S
GREENWOOD      LGT RAIN  74  72  93 S12       30.01F
GREENVILLE     LGT RAIN  76  74  93 SE12      29.95F
GRENADA        CLOUDY    72  70  94 S6        30.03F
OLIVE BRANCH   CLOUDY    75  75 100 S6        30.02R
OXFORD         LGT RAIN  73  72  94 CALM      30.05R
TUNICA         LGT RAIN  77  73  88 SE3       30.00S
$$

MSZ003>006-009-014>017-022>024-029>033-037>039-302300-
NORTHEAST MISSISSIPPI

CITY           SKY/WX    TMP DP  RH WIND       PRES   REMARKS
BELMONT        LGT RAIN  79  74  84 SW6       30.04R
COLUMBUS AFB   HVY RAIN  73  73 100 SW12G23   30.09R VSB 3/4
CORINTH        FAIR      79  73  83 SW5       30.03R
STARKVILLE     RAIN      72  70  94 S3        30.08R
TUPELO         TSTM      76  72  87 W12G18    30.06R FOG
$$

MSZ040-058-302300-
CENTRAL MISSISSIPPI

CITY           SKY/WX    TMP DP  RH WIND       PRES   REMARKS
JACKSON INTL   LGT RAIN  75  73  93 S10       30.00F
JACKSON HAWKNS LGT RAIN  76  72  87 S10       30.01F
MERIDIAN KEY   CLOUDY    74  71  91 S3        30.07S
MERIDIAN NAS   CLOUDY    74  72  93 VRB3      30.08S
RAYMOND        FAIR      75  72  88 S8        30.01S
VICKSBURG      LGT RAIN  76  73  91 S12       29.97F
$$

MSZ059>079-302300-
SOUTH MISSISSIPPI

CITY           SKY/WX    TMP DP  RH WIND       PRES   REMARKS
BROOKHAVEN     MOCLDY    73  73 100 S6        30.03F
COLUMBIA       FAIR      75  73  94 SE6       30.01F
HATTIESBURG    LGT RAIN  76  73  91 S6        30.05F
MCCOMB         CLOUDY    75  73  93 S7        30.02F
NATCHEZ        CLOUDY    75  72  88 S10       30.00S
PINE BELT      CLOUDY   N/A N/A N/A S8        30.05F
$$

MSZ080>082-302300-
COASTAL MISSISSIPPI

CITY           SKY/WX    TMP DP  RH WIND       PRES   REMARKS
BAY ST LOUIS   LGT RAIN N/A N/A N/A SE5       30.03F
BILOXI         LGT RAIN  77  73  88 VRB3      30.04S
PASCAGOULA     CLOUDY    87  77  72 S6        30.03F HX  99
GULFPORT       CLOUDY    76  74  93 W6        30.05R
$$



USA.gov is the U.S. government's official web portal to all federal, state and local government web resources and services.